Regional Weather Roundup
Issued by NWS Sioux Falls, SD

Home | Current Version | Previous Version | Graphics & Text | Print | Product List | Glossary On
Versions: 1 2 3 4 5 6 7 8 9 10 11 12 13 14 15 16 17 18 19 20 21 22 23 24 25 26 27 28 29 30 31 32 33 34 35 36 37 38 39 40 41 42 43 44 45 46 47 48 49 50
000
ASUS43 KFSD 280110
RWRFSD

WEATHER ROUNDUP FOR SE SOUTH DAKOTA/SW MINNESOTA/NW IOWA
NATIONAL WEATHER SERVICE SIOUX FALLS SD
800 PM CDT SUN JUL 27 2014

NOTE: "FAIR" INDICATES FEW OR NO CLOUDS BELOW 12,000 FEET WITH NO
SIGNIFICANT WEATHER AND OR OBSTRUCTIONS TO VISIBILITY.


SDZ038>040-050-052>070-280200-
SOUTHEAST SOUTH DAKOTA

CITY           SKY/WX    TMP DP  RH WIND       PRES   REMARKS
CHAMBERLAIN    SUNNY     73  53  51 N14       30.20S
HURON          CLEAR     67  54  63 N15       30.19S
MADISON        CLOUDY    64  57  77 N15       30.19R
MITCHELL       PTCLDY    69  56  62 N16       30.20R
SIOUX FALLS    PTCLDY    66  55  67 NW13      30.17R
WINNER         FAIR      77  51  40 N14       30.22R
YANKTON        CLEAR     70  55  60 N15       30.18R
$$

MNZ071-072-080-081-089-090-097-098-280200-
SOUTHWEST MINNESOTA

CITY           SKY/WX    TMP DP  RH WIND       PRES   REMARKS
FAIRMONT       PTCLDY    70  55  60 NW13G21   30.08R
JACKSON        CLEAR     68  55  64 NW9G17    30.11R
LUVERNE        MOCLDY    68  55  64 N12       30.15S
MARSHALL       CLEAR     66  54  63 NW16G23   30.13R
MONTEVIDEO     CLEAR     66  57  72 N17G23    30.13S
PIPESTONE      MOCLDY    66  57  72 N10       30.16R
REDWOOD FALLS  PTCLDY    70  58  65 NW15G24   30.09R
TRACY          PTCLDY    67  58  72 NW13G22   30.14R
WINDOM         CLEAR     68  57  68 NW16G22   30.11S
WORTHINGTON    CLEAR     66  55  68 NW14      30.14S
$$

IAZ001>003-012>014-020>022-031-032-NEZ013-014-SDZ071-280200-
NORTHWEST IOWA

CITY           SKY/WX    TMP DP  RH WIND       PRES   REMARKS
CHEROKEE       CLEAR     68  58  70 N7        30.13R
DENISON        CLEAR     72  57  60 N10G18    30.10S
ESTHERVILLE    PTCLDY    68  58  70 NW14G28   30.09R
LE MARS        CLEAR     70  57  64 N12       30.15R
ORANGE CITY    CLEAR     68  55  64 NW9G17    30.15S
SHELDON        PTCLDY    66  57  72 NW13      30.13R
SIOUX CITY     PTCLDY    74  57  55 N15       30.12S
SPENCER        PTCLDY    69  57  65 NW14      30.12R
STORM LAKE     PTCLDY    68  59  73 N12G21    30.13R
$$

ABBREVIATIONS USED IN REMARKS
   TC - TEMPERATURE IN CELSIUS
  WCI - WIND CHILL INDEX
   HX - HEAT INDEX
  VSB - VISIBILITY



USA.gov is the U.S. government's official web portal to all federal, state and local government web resources and services.